This demonstration page uses our WeatherBlox Daily Observations layout. Learn more.

36.17497, -115.13722

Hourly Observations for May 15, 2018

Temp ( °F °C ) Dew Point ( °F °C ) Humidity (%) Winds ( mph kmh ) Pressure ( in mb ) Visibility ( mi km ) Precip ( " mm )
12:53 am 00:53 Clear 73 22.8 40 4.4 30 30 N 12 19 29.83 1010 10 16.09344 0 0
1:53 am 01:53 Clear 72 22.2 40 4.4 31 31 NNW 13 20 29.83 1010 10 16.09344 0 0
2:53 am 02:53 Clear 71 21.7 41 5 34 34 NNW 15 24 29.83 1010 10 16.09344 0 0
3:53 am 03:53 Clear 70 21.1 41 5 35 35 NNW 14 22 29.85 1011 10 16.09344 0 0
4:53 am 04:53 Clear 69 20.6 41 5 36 36 NNW 14 22 29.85 1011 10 16.09344 0 0
5:53 am 05:53 Sunny 68 20 41 5 38 38 N 12 19 29.88 1012 10 16.09344 0 0
6:53 am 06:53 Sunny 68 20 41 5 38 38 N 12 19 29.88 1012 10 16.09344 0 0
7:53 am 07:53 Sunny 71 21.7 42 5.6 35 35 N 12 19 29.91 1013 10 16.09344 0 0
8:53 am 08:53 Sunny 75 23.9 40 4.4 28 28 ENE 5 7 29.94 1014 10 16.09344 0 0
9:53 am 09:53 Sunny 75 23.9 36 2.2 24 24 ESE 5 7 29.94 1014 10 16.09344 0 0
10:53 am 10:53 Sunny 79 26.1 35 1.7 20 20 ESE 8 13 29.94 1014 N/A 0 0
11:53 am 11:53 Sunny 81 27.2 31 -0.6 16 16 SSE 10 17 29.91 1013 10 16.09344 0 0
12:53 pm 12:53 Sunny 83 28.3 27 -2.8 13 13 S 8 13 29.91 1013 10 16.09344 0 0
1:53 pm 13:53 Sunny 84 28.9 27 -2.8 12 12 S 9 15 29.88 1012 10 16.09344 0 0
2:53 pm 14:53 Sunny 87 30.6 26 -3.3 11 11 SE 15 24 29.85 1011 10 16.09344 0 0
3:09 pm 15:09 Sunny 86 30 24 -4.4 10 10 SE 9 15 29.74 1007 10 16.09344 0 0
3:53 pm 15:53 Sunny 88 31.1 22 -5.6 9 9 SE 16 26 29.83 1010 10 16.09344 0 0
4:53 pm 16:53 Sunny 87 30.6 23 -5 9 9 ESE 12 19 29.8 1009 10 16.09344 0 0
5:53 pm 17:53 Sunny 87 30.6 24 -4.4 10 10 ESE 10 17 29.8 1009 10 16.09344 0 0
6:53 pm 18:53 Sunny 86 30 20 -6.7 9 9 ESE 12 19 29.8 1009 10 16.09344 0 0
7:53 pm 19:53 Clear 85 29.4 19 -7.2 9 9 W 14 22 29.8 1009 10 16.09344 0 0
8:53 pm 20:53 Clear 83 28.3 21 -6.1 10 10 W 9 15 29.83 1010 10 16.09344 0 0
9:53 pm 21:53 Clear 81 27.2 24 -4.4 12 12 SW 3 6 29.85 1011 10 16.09344 0 0
10:53 pm 22:53 Clear 77 25 24 -4.4 14 14 SE 3 6 29.85 1011 10 16.09344 0 0
11:53 pm 23:53 Clear 77 25 31 -0.6 18 18 SSW 7 11 29.85 1011 10 16.09344 0 0

Powered by AerisWeather